| time (UTC) | temp F | wind direction | speed MPH | gust MPH | rain 1hr in | rain 24hr in | rain mn in | humidity % | barometer mb |
| 20260502151855 | 71 | 295 | 1.0 | 4.0 | 0.00 | 0.00 | 0.00 | 52 | 1022.3 |
| 20260502151351 | 69 | 350 | 0.0 | 4.0 | 0.00 | 0.00 | 0.00 | 55 | 1022.1 |
| 20260502150849 | 70 | 225 | 0.0 | 4.0 | 0.00 | 0.00 | 0.00 | 55 | 1022.5 |
| 20260502150345 | 68 | 232 | 0.0 | 2.0 | 0.00 | 0.00 | 0.00 | 60 | 1022.4 |
| 20260502130733 | 59 | 356 | 4.0 | 5.0 | 0.00 | 0.00 | 0.00 | 81 | 1022.1 |
| 20260502130231 | 59 | 123 | 1.0 | 4.0 | 0.00 | 0.00 | 0.00 | 82 | 1021.8 |
| 20260502123717 | 57 | 61 | 1.0 | 3.0 | 0.00 | 0.00 | 0.00 | 89 | 1021.4 |
| 20260502123213 | 56 | 107 | 1.0 | 2.0 | 0.00 | 0.00 | 0.00 | 91 | 1021.3 |
| 20260502122710 | 56 | 41 | 2.0 | 3.0 | 0.00 | 0.00 | 0.00 | 91 | 1021.1 |
| 20260502122206 | 55 | 157 | 2.0 | 2.0 | 0.00 | 0.00 | 0.00 | 93 | 1021.1 |
| 20260502121705 | 55 | 77 | 2.0 | 2.0 | 0.00 | 0.00 | 0.00 | 94 | 1020.8 |
| 20260502121203 | 54 | 113 | 2.0 | 2.0 | 0.00 | 0.00 | 0.00 | 94 | 1020.7 |
| 20260502120658 | 54 | 56 | 2.0 | 2.0 | 0.00 | 0.00 | 0.00 | 95 | 1020.5 |
| 20260502120155 | 53 | 73 | 0.0 | 3.0 | 0.00 | 0.00 | 0.00 | 96 | 1020.2 |
| 20260502115653 | 53 | 81 | 2.0 | 3.0 | 0.00 | 0.00 | 0.00 | 96 | 1020.6 |
| 20260502115149 | 52 | 32 | 3.0 | 3.0 | 0.00 | 0.00 | 0.00 | 96 | 1020.1 |
| 20260502114645 | 52 | 41 | 2.0 | 3.0 | 0.00 | 0.00 | 0.00 | 96 | 1020.2 |
| 20260502114143 | 52 | 58 | 1.0 | 3.0 | 0.00 | 0.00 | 0.00 | 96 | 1020.0 |
| 20260502113640 | 52 | 37 | 1.0 | 4.0 | 0.00 | 0.00 | 0.00 | 96 | 1019.9 |
| 20260502113138 | 52 | 74 | 2.0 | 4.0 | 0.00 | 0.00 | 0.00 | 96 | 1020.1 |
| 20260502112636 | 52 | 38 | 2.0 | 4.0 | 0.00 | 0.00 | 0.00 | 95 | 1019.8 |
| 20260502112133 | 52 | 62 | 0.0 | 2.0 | 0.00 | 0.00 | 0.00 | 95 | 1019.9 |
| 20260502111631 | 52 | 86 | 0.0 | 3.0 | 0.00 | 0.00 | 0.00 | 95 | 1019.8 |
| 20260502111128 | 52 | 121 | 3.0 | 3.0 | 0.00 | 0.00 | 0.00 | 95 | 1019.8 |
| 20260502110626 | 52 | 128 | 1.0 | 4.0 | 0.00 | 0.00 | 0.00 | 95 | 1019.7 |
| 20260502110123 | 53 | 49 | 2.0 | 4.0 | 0.00 | 0.00 | 0.00 | 94 | 1019.8 |
| 20260502105620 | 53 | 38 | 1.0 | 4.0 | 0.00 | 0.00 | 0.00 | 94 | 1019.6 |
| 20260502105117 | 53 | 100 | 2.0 | 2.0 | 0.00 | 0.00 | 0.00 | 93 | 1019.8 |
| 20260502104614 | 53 | 83 | 0.0 | 2.0 | 0.00 | 0.00 | 0.00 | 93 | 1019.6 |
| 20260502104111 | 53 | 128 | 1.0 | 3.0 | 0.00 | 0.00 | 0.00 | 93 | 1019.4 |
| 20260502103609 | 53 | 52 | 3.0 | 3.0 | 0.00 | 0.00 | 0.00 | 92 | 1019.5 |
| 20260502103107 | 53 | 56 | 2.0 | 4.0 | 0.00 | 0.00 | 0.00 | 92 | 1019.5 |
| 20260502102603 | 53 | 324 | 2.0 | 3.0 | 0.00 | 0.00 | 0.00 | 92 | 1019.5 |
| 20260502102100 | 53 | 35 | 2.0 | 2.0 | 0.00 | 0.00 | 0.00 | 92 | 1019.5 |
| 20260502101558 | 53 | 354 | 2.0 | 3.0 | 0.00 | 0.00 | 0.00 | 91 | 1019.4 |
| 20260502101056 | 53 | 170 | 1.0 | 4.0 | 0.00 | 0.00 | 0.00 | 91 | 1019.3 |
| 20260502100554 | 54 | 11 | 2.0 | 4.0 | 0.00 | 0.00 | 0.00 | 91 | 1019.3 |
| 20260502091529 | 55 | 98 | 2.0 | 4.0 | 0.00 | 0.00 | 0.00 | 90 | 1019.0 |
| 20260502091026 | 55 | 11 | 3.0 | 5.0 | 0.00 | 0.00 | 0.00 | 90 | 1019.2 |
| 20260502090523 | 55 | 81 | 1.0 | 4.0 | 0.00 | 0.00 | 0.00 | 90 | 1019.1 |
| 20260502071418 | 55 | 112 | 1.0 | 3.0 | 0.00 | 0.00 | 0.00 | 93 | 1019.1 |
| 20260502070916 | 55 | 352 | 1.0 | 3.0 | 0.00 | 0.00 | 0.00 | 93 | 1019.2 |
| 20260502070414 | 55 | 68 | 2.0 | 3.0 | 0.00 | 0.00 | 0.00 | 93 | 1019.2 |
| 20260502065912 | 55 | 18 | 2.0 | 5.0 | 0.00 | 0.00 | 0.00 | 93 | 1019.3 |
| 20260502065410 | 55 | 143 | 1.0 | 4.0 | 0.00 | 0.00 | 0.00 | 94 | 1019.1 |
| 20260502064908 | 55 | 105 | 1.0 | 3.0 | 0.00 | 0.00 | 0.00 | 94 | 1019.3 |
| 20260502064405 | 55 | 29 | 3.0 | 4.0 | 0.00 | 0.00 | 0.00 | 94 | 1019.2 |
| 20260502063902 | 55 | 14 | 2.0 | 5.0 | 0.00 | 0.00 | 0.00 | 94 | 1019.3 |
| 20260502063400 | 55 | 83 | 2.0 | 4.0 | 0.00 | 0.00 | 0.00 | 95 | 1019.1 |
| 20260502062857 | 55 | 27 | 2.0 | 4.0 | 0.00 | 0.00 | 0.00 | 95 | 1019.3 |
| 20260502062354 | 55 | 125 | 1.0 | 3.0 | 0.00 | 0.00 | 0.00 | 95 | 1019.3 |
| 20260502061854 | 55 | 11 | 1.0 | 4.0 | 0.00 | 0.00 | 0.00 | 95 | 1019.2 |
| 20260502061351 | 55 | 143 | 0.0 | 4.0 | 0.00 | 0.00 | 0.00 | 95 | 1019.3 |
| 20260502060846 | 55 | 168 | 1.0 | 3.0 | 0.00 | 0.00 | 0.00 | 95 | 1019.3 |
| 20260502060341 | 55 | 8 | 1.0 | 4.0 | 0.00 | 0.00 | 0.00 | 95 | 1019.4 |
| 20260502055839 | 55 | 37 | 0.0 | 3.0 | 0.00 | 0.00 | 0.00 | 95 | 1019.3 |
| 20260502055337 | 55 | 43 | 1.0 | 4.0 | 0.00 | 0.00 | 0.00 | 95 | 1019.2 |
| 20260502054836 | 55 | 197 | 0.0 | 3.0 | 0.00 | 0.00 | 0.00 | 95 | 1019.2 |
| 20260502054333 | 55 | 64 | 2.0 | 2.0 | 0.00 | 0.00 | 0.00 | 95 | 1019.2 |
| 20260502053831 | 55 | 110 | 2.0 | 3.0 | 0.00 | 0.00 | 0.00 | 95 | 1019.4 |
| 20260502053328 | 55 | 255 | 1.0 | 3.0 | 0.00 | 0.00 | 0.00 | 95 | 1019.4 |
| 20260502052825 | 55 | 105 | 1.0 | 4.0 | 0.00 | 0.00 | 0.00 | 95 | 1019.1 |
| 20260502052323 | 55 | 236 | 1.0 | 4.0 | 0.00 | 0.00 | 0.00 | 95 | 1019.2 |
| 20260502051821 | 56 | 136 | 1.0 | 3.0 | 0.00 | 0.00 | 0.00 | 94 | 1019.3 |
| 20260502051320 | 56 | 130 | 1.0 | 3.0 | 0.00 | 0.00 | 0.00 | 94 | 1019.2 |
| 20260502050816 | 56 | 81 | 0.0 | 3.0 | 0.00 | 0.00 | 0.00 | 94 | 1019.3 |
| 20260502050312 | 56 | 164 | 2.0 | 2.0 | 0.00 | 0.00 | 0.00 | 94 | 1019.1 |
| 20260502045809 | 56 | 60 | 2.0 | 5.0 | 0.00 | 0.42 | 0.42 | 94 | 1019.1 |
| 20260502045306 | 56 | 154 | 1.0 | 3.0 | 0.00 | 0.42 | 0.42 | 94 | 1018.9 |
| 20260502044803 | 56 | 120 | 0.0 | 4.0 | 0.00 | 0.42 | 0.42 | 94 | 1018.9 |
| 20260502044259 | 56 | 107 | 2.0 | 2.0 | 0.00 | 0.42 | 0.42 | 94 | 1019.1 |
| 20260502043756 | 56 | 186 | 1.0 | 4.0 | 0.00 | 0.42 | 0.42 | 94 | 1019.1 |
| 20260502043254 | 56 | 149 | 2.0 | 3.0 | 0.00 | 0.42 | 0.42 | 94 | 1018.9 |
| 20260502042753 | 56 | 162 | 1.0 | 4.0 | 0.00 | 0.42 | 0.42 | 94 | 1018.9 |
| 20260502042250 | 56 | 215 | 1.0 | 2.0 | 0.00 | 0.42 | 0.42 | 94 | 1018.9 |
| 20260502041748 | 56 | 188 | 0.0 | 2.0 | 0.00 | 0.42 | 0.42 | 94 | 1018.9 |
| 20260502041245 | 56 | 161 | 1.0 | 2.0 | 0.00 | 0.42 | 0.42 | 94 | 1018.7 |
| 20260502040742 | 56 | 235 | 2.0 | 3.0 | 0.00 | 0.42 | 0.42 | 95 | 1018.9 |
| 20260502040239 | 56 | 106 | 1.0 | 2.0 | 0.00 | 0.42 | 0.42 | 94 | 1018.8 |
| 20260502035735 | 56 | 42 | 3.0 | 3.0 | 0.00 | 0.42 | 0.42 | 94 | 1018.8 |
| 20260502035232 | 56 | 208 | 0.0 | 3.0 | 0.00 | 0.42 | 0.42 | 94 | 1018.8 |
| 20260502034729 | 56 | 85 | 1.0 | 1.0 | 0.00 | 0.42 | 0.42 | 94 | 1018.7 |
| 20260502034227 | 56 | 211 | 0.0 | 2.0 | 0.00 | 0.42 | 0.42 | 94 | 1018.7 |
| 20260502033725 | 56 | 129 | 0.0 | 1.0 | 0.00 | 0.42 | 0.42 | 94 | 1018.6 |
| 20260502033223 | 56 | 130 | 0.0 | 2.0 | 0.00 | 0.42 | 0.42 | 94 | 1018.5 |
| 20260502032719 | 56 | 127 | 0.0 | 1.0 | 0.00 | 0.42 | 0.42 | 94 | 1018.3 |
| 20260502032215 | 56 | 83 | 1.0 | 1.0 | 0.00 | 0.42 | 0.42 | 93 | 1018.5 |
| 20260502031714 | 56 | 113 | 2.0 | 4.0 | 0.00 | 0.42 | 0.42 | 93 | 1018.4 |
| 20260502031211 | 56 | 125 | 3.0 | 3.0 | 0.00 | 0.42 | 0.42 | 93 | 1018.4 |
| 20260502030710 | 56 | 2 | 2.0 | 2.0 | 0.00 | 0.42 | 0.42 | 93 | 1018.4 |
| 20260502030207 | 56 | 207 | 2.0 | 4.0 | 0.00 | 0.42 | 0.42 | 93 | 1018.5 |
| 20260502025704 | 56 | 118 | 2.0 | 4.0 | 0.00 | 0.42 | 0.42 | 93 | 1018.4 |
| 20260502025202 | 56 | 220 | 1.0 | 3.0 | 0.00 | 0.42 | 0.42 | 93 | 1018.4 |
| 20260502024659 | 56 | 88 | 0.0 | 4.0 | 0.00 | 0.42 | 0.42 | 92 | 1017.9 |
| 20260502024158 | 56 | 65 | 2.0 | 3.0 | 0.02 | 0.42 | 0.42 | 93 | 1017.8 |
| 20260502023655 | 56 | 125 | 3.0 | 6.0 | 0.02 | 0.42 | 0.42 | 93 | 1018.1 |
| 20260502023152 | 56 | 134 | 3.0 | 6.0 | 0.00 | 0.41 | 0.41 | 93 | 1017.9 |
| 20260502022649 | 56 | 132 | 2.0 | 5.0 | 0.00 | 0.41 | 0.41 | 92 | 1018.4 |
| 20260502022146 | 56 | 124 | 3.0 | 4.0 | 0.00 | 0.41 | 0.41 | 92 | 1018.4 |
| 20260502021644 | 56 | 145 | 1.0 | 1.0 | 0.00 | 0.41 | 0.41 | 93 | 1019.1 |
| 20260502021140 | 57 | 165 | 1.0 | 2.0 | 0.00 | 0.41 | 0.41 | 93 | 1018.8 |
| 20260502020638 | 57 | 160 | 2.0 | 2.0 | 0.00 | 0.41 | 0.41 | 93 | 1018.5 |
| 20260502020134 | 57 | 117 | 2.0 | 3.0 | 0.00 | 0.41 | 0.41 | 93 | 1018.2 |
| 20260502015633 | 57 | 119 | 2.0 | 3.0 | 0.00 | 0.41 | 0.41 | 93 | 1018.2 |
| 20260502015128 | 57 | 107 | 2.0 | 3.0 | 0.00 | 0.41 | 0.41 | 92 | 1018.0 |
| 20260502014626 | 57 | 87 | 1.0 | 2.0 | 0.00 | 0.41 | 0.41 | 92 | 1018.2 |
| 20260502014123 | 57 | 61 | 2.0 | 3.0 | 0.00 | 0.41 | 0.41 | 93 | 1018.1 |
| 20260502013619 | 57 | 243 | 0.0 | 2.0 | 0.00 | 0.41 | 0.41 | 93 | 1017.8 |
| 20260502013115 | 57 | 122 | 0.0 | 4.0 | 0.00 | 0.41 | 0.41 | 92 | 1017.6 |
| 20260502012613 | 57 | 338 | 2.0 | 3.0 | 0.00 | 0.41 | 0.41 | 92 | 1017.6 |
| 20260502012111 | 57 | 51 | 4.0 | 4.0 | 0.00 | 0.41 | 0.41 | 92 | 1017.2 |
| 20260502011607 | 57 | 347 | 2.0 | 4.0 | 0.00 | 0.41 | 0.41 | 91 | 1017.1 |
| 20260502011103 | 57 | 192 | 0.0 | 3.0 | 0.00 | 0.41 | 0.41 | 91 | 1017.4 |
| 20260502010600 | 57 | 21 | 2.0 | 4.0 | 0.00 | 0.41 | 0.41 | 91 | 1017.5 |
| 20260502010056 | 57 | 59 | 1.0 | 2.0 | 0.00 | 0.41 | 0.41 | 91 | 1017.7 |
| 20260502005554 | 57 | 96 | 2.0 | 3.0 | 0.00 | 0.41 | 0.41 | 91 | 1017.6 |
| 20260502005052 | 57 | 353 | 2.0 | 3.0 | 0.00 | 0.41 | 0.41 | 90 | 1017.5 |
| 20260502004547 | 57 | 35 | 2.0 | 3.0 | 0.00 | 0.41 | 0.41 | 90 | 1017.3 |
| 20260502004044 | 57 | 16 | 2.0 | 3.0 | 0.00 | 0.41 | 0.41 | 90 | 1017.3 |
| 20260502003542 | 58 | 25 | 1.0 | 3.0 | 0.02 | 0.41 | 0.41 | 89 | 1017.6 |
| 20260502003039 | 58 | 53 | 1.0 | 2.0 | 0.02 | 0.41 | 0.41 | 89 | 1017.6 |
| 20260502002535 | 57 | 28 | 2.0 | 3.0 | 0.00 | 0.41 | 0.41 | 88 | 1017.6 |
| 20260502002032 | 58 | 60 | 2.0 | 2.0 | 0.00 | 0.41 | 0.41 | 88 | 1017.6 |
| 20260502001530 | 58 | 77 | 2.0 | 3.0 | 0.00 | 0.41 | 0.41 | 88 | 1017.2 |
| 20260502001027 | 58 | 63 | 2.0 | 3.0 | 0.02 | 0.41 | 0.41 | 88 | 1017.2 |
| 20260502000526 | 58 | 99 | 2.0 | 2.0 | 0.02 | 0.41 | 0.41 | 89 | 1017.3 |
| 20260502000022 | 58 | 108 | 2.0 | 4.0 | 0.00 | 0.41 | 0.41 | 88 | 1017.3 |
| 20260501235518 | 58 | 94 | 3.0 | 4.0 | 0.00 | 0.41 | 0.41 | 88 | 1016.9 |
| 20260501235014 | 58 | 101 | 2.0 | 2.0 | 0.00 | 0.41 | 0.41 | 88 | 1016.9 |
| 20260501234510 | 58 | 84 | 0.0 | 2.0 | 0.00 | 0.41 | 0.41 | 88 | 1017.2 |
| 20260501234009 | 58 | 59 | 0.0 | 2.0 | 0.00 | 0.41 | 0.41 | 88 | 1017.1 |
| 20260501233506 | 58 | 46 | 1.0 | 3.0 | 0.00 | 0.41 | 0.41 | 88 | 1017.1 |
| 20260501233002 | 58 | 32 | 2.0 | 4.0 | 0.00 | 0.41 | 0.41 | 87 | 1016.8 |
| 20260501232459 | 58 | 84 | 1.0 | 3.0 | 0.02 | 0.41 | 0.41 | 85 | 1016.8 |
| 20260501231956 | 58 | 260 | 2.0 | 3.0 | 0.02 | 0.41 | 0.41 | 84 | 1016.8 |
| 20260501231454 | 58 | 125 | 3.0 | 7.0 | 0.00 | 0.40 | 0.40 | 84 | 1016.9 |
| 20260501230952 | 59 | 281 | 0.0 | 5.0 | 0.02 | 0.40 | 0.40 | 83 | 1016.5 |
| 20260501230451 | 59 | 180 | 2.0 | 3.0 | 0.02 | 0.40 | 0.40 | 81 | 1016.5 |
| 20260501225948 | 59 | 149 | 2.0 | 2.0 | 0.00 | 0.40 | 0.40 | 80 | 1016.9 |
| 20260501225445 | 59 | 102 | 4.0 | 6.0 | 0.00 | 0.40 | 0.40 | 79 | 1017.3 |
| 20260501224941 | 59 | 79 | 5.0 | 7.0 | 0.00 | 0.40 | 0.40 | 78 | 1016.9 |
| 20260501224439 | 59 | 92 | 7.0 | 11.0 | 0.00 | 0.40 | 0.40 | 78 | 1016.6 |
| 20260501223936 | 59 | 85 | 3.0 | 13.0 | 0.00 | 0.40 | 0.40 | 78 | 1016.5 |
| 20260501223432 | 60 | 120 | 2.0 | 5.0 | 0.00 | 0.40 | 0.40 | 77 | 1016.3 |
| 20260501222927 | 60 | 98 | 2.0 | 6.0 | 0.00 | 0.40 | 0.40 | 78 | 1016.4 |
| 20260501222425 | 60 | 109 | 6.0 | 6.0 | 0.00 | 0.40 | 0.40 | 77 | 1016.2 |
| 20260501221921 | 60 | 161 | 3.0 | 6.0 | 0.00 | 0.40 | 0.40 | 76 | 1015.9 |
| 20260501221419 | 60 | 110 | 6.0 | 10.0 | 0.00 | 0.40 | 0.40 | 75 | 1015.7 |
| 20260501220916 | 61 | 113 | 5.0 | 8.0 | 0.00 | 0.40 | 0.40 | 75 | 1015.8 |
| 20260501220414 | 60 | 181 | 2.0 | 5.0 | 0.00 | 0.40 | 0.40 | 75 | 1015.6 |
| 20260501215910 | 61 | 157 | 4.0 | 6.0 | 0.00 | 0.40 | 0.40 | 74 | 1015.4 |
| 20260501215407 | 61 | 306 | 2.0 | 6.0 | 0.00 | 0.40 | 0.40 | 74 | 1015.6 |
| 20260501214902 | 61 | 255 | 3.0 | 6.0 | 0.00 | 0.40 | 0.40 | 73 | 1015.6 |
| 20260501214402 | 61 | 105 | 5.0 | 6.0 | 0.00 | 0.40 | 0.40 | 75 | 1015.6 |
| 20260501213858 | 60 | 260 | 2.0 | 10.0 | 0.00 | 0.40 | 0.40 | 75 | 1015.9 |
| 20260501213355 | 60 | 119 | 7.0 | 9.0 | 0.00 | 0.40 | 0.40 | 76 | 1015.9 |
| 20260501212851 | 59 | 181 | 2.0 | 4.0 | 0.00 | 0.40 | 0.40 | 76 | 1016.2 |
| 20260501212348 | 59 | 265 | 3.0 | 5.0 | 0.00 | 0.40 | 0.40 | 76 | 1016.3 |
| 20260501211845 | 59 | 110 | 3.0 | 5.0 | 0.00 | 0.40 | 0.40 | 78 | 1016.6 |
| 20260501211342 | 59 | 120 | 2.0 | 5.0 | 0.00 | 0.40 | 0.40 | 78 | 1016.5 |
| 20260501210839 | 59 | 346 | 3.0 | 4.0 | 0.00 | 0.40 | 0.40 | 78 | 1017.1 |
| 20260501210337 | 59 | 100 | 0.0 | 5.0 | 0.00 | 0.40 | 0.40 | 77 | 1016.6 |
| 20260501205833 | 59 | 7 | 0.0 | 4.0 | 0.00 | 0.40 | 0.40 | 77 | 1016.8 |
| 20260501205330 | 60 | 142 | 2.0 | 4.0 | 0.00 | 0.40 | 0.40 | 78 | 1016.6 |
| 20260501204826 | 60 | 212 | 1.0 | 5.0 | 0.00 | 0.40 | 0.40 | 78 | 1016.5 |
| 20260501204323 | 59 | 257 | 3.0 | 8.0 | 0.00 | 0.40 | 0.40 | 76 | 1015.9 |
| 20260501203819 | 60 | 223 | 5.0 | 6.0 | 0.00 | 0.40 | 0.40 | 75 | 1016.1 |
| 20260501203317 | 60 | 228 | 6.0 | 7.0 | 0.00 | 0.40 | 0.40 | 75 | 1015.7 |
| 20260501202814 | 60 | 193 | 3.0 | 6.0 | 0.00 | 0.40 | 0.40 | 77 | 1015.4 |
| 20260501202310 | 60 | 84 | 7.0 | 14.0 | 0.00 | 0.40 | 0.40 | 77 | 1014.7 |
| 20260501201808 | 60 | 139 | 5.0 | 13.0 | 0.00 | 0.40 | 0.40 | 75 | 1014.8 |
| 20260501201304 | 60 | 143 | 4.0 | 22.0 | 0.00 | 0.40 | 0.40 | 77 | 1014.7 |
| 20260501200800 | 60 | 159 | 6.0 | 11.0 | 0.00 | 0.40 | 0.40 | 77 | 1014.8 |
| 20260501200258 | 61 | 245 | 3.0 | 7.0 | 0.00 | 0.40 | 0.40 | 78 | 1014.6 |
| 20260501195755 | 60 | 99 | 3.0 | 19.0 | 0.00 | 0.40 | 0.40 | 77 | 1014.6 |
| 20260501195251 | 60 | 246 | 4.0 | 13.0 | 0.00 | 0.40 | 0.40 | 79 | 1014.7 |
| 20260501194747 | 59 | 249 | 3.0 | 6.0 | 0.00 | 0.40 | 0.40 | 84 | 1014.7 |
| 20260501194243 | 59 | 114 | 1.0 | 9.0 | 0.00 | 0.40 | 0.40 | 86 | 1014.8 |
| 20260501193740 | 59 | 115 | 2.0 | 5.0 | 0.00 | 0.40 | 0.40 | 89 | 1015.2 |
| 20260501193238 | 58 | 241 | 3.0 | 5.0 | 0.00 | 0.40 | 0.40 | 90 | 1014.9 |
| 20260501192735 | 57 | 193 | 2.0 | 8.0 | 0.00 | 0.40 | 0.40 | 90 | 1015.2 |
| 20260501192232 | 57 | 108 | 3.0 | 9.0 | 0.00 | 0.40 | 0.40 | 91 | 1015.1 |
| 20260501191730 | 57 | 144 | 2.0 | 6.0 | 0.00 | 0.40 | 0.40 | 91 | 1015.4 |
| 20260501191227 | 57 | 209 | 2.0 | 7.0 | 0.00 | 0.40 | 0.40 | 92 | 1015.8 |
| 20260501190723 | 56 | 298 | 0.0 | 12.0 | 0.00 | 0.40 | 0.40 | 92 | 1016.1 |
| 20260501190219 | 57 | 179 | 2.0 | 6.0 | 0.00 | 0.40 | 0.40 | 91 | 1016.4 |
| 20260501185715 | 57 | 108 | 4.0 | 9.0 | 0.00 | 0.40 | 0.40 | 91 | 1016.5 |
| 20260501185211 | 57 | 227 | 2.0 | 5.0 | 0.00 | 0.40 | 0.40 | 92 | 1016.8 |
| 20260501184707 | 56 | 168 | 1.0 | 6.0 | 0.00 | 0.40 | 0.40 | 92 | 1017.0 |
| 20260501184202 | 56 | 181 | 1.0 | 6.0 | 0.00 | 0.40 | 0.40 | 93 | 1017.0 |
| 20260501183659 | 56 | 193 | 3.0 | 11.0 | 0.00 | 0.40 | 0.40 | 93 | 1017.2 |
| 20260501183155 | 56 | 234 | 2.0 | 6.0 | 0.00 | 0.40 | 0.40 | 93 | 1017.4 |
| 20260501182652 | 55 | 131 | 3.0 | 13.0 | 0.00 | 0.40 | 0.40 | 93 | 1017.4 |
| 20260501182148 | 55 | 256 | 4.0 | 5.0 | 0.02 | 0.40 | 0.40 | 93 | 1017.4 |
| 20260501181646 | 55 | 192 | 2.0 | 4.0 | 0.02 | 0.40 | 0.40 | 93 | 1017.7 |
| 20260501181143 | 55 | 98 | 5.0 | 6.0 | 0.00 | 0.39 | 0.39 | 94 | 1017.4 |
| 20260501180641 | 55 | 85 | 5.0 | 10.0 | 0.02 | 0.39 | 0.39 | 93 | 1017.2 |
| 20260501180137 | 55 | 118 | 9.0 | 11.0 | 0.05 | 0.39 | 0.39 | 93 | 1017.3 |
| 20260501175633 | 55 | 86 | 3.0 | 11.0 | 0.02 | 0.39 | 0.39 | 93 | 1017.5 |
| 20260501175131 | 55 | 162 | 2.0 | 7.0 | 0.02 | 0.39 | 0.39 | 93 | 1018.0 |
| 20260501174627 | 55 | 95 | 3.0 | 11.0 | 0.02 | 0.39 | 0.39 | 93 | 1018.0 |
| 20260501174125 | 55 | 98 | 3.0 | 6.0 | 0.02 | 0.38 | 0.38 | 94 | 1018.1 |
| 20260501173622 | 55 | 93 | 6.0 | 12.0 | 0.02 | 0.38 | 0.38 | 93 | 1018.2 |
| 20260501173119 | 55 | 116 | 6.0 | 7.0 | 0.00 | 0.38 | 0.38 | 94 | 1018.4 |
| 20260501172615 | 55 | 150 | 2.0 | 7.0 | 0.00 | 0.38 | 0.38 | 94 | 1018.3 |
| 20260501172110 | 55 | 76 | 6.0 | 8.0 | 0.00 | 0.38 | 0.38 | 95 | 1018.3 |
| 20260501171606 | 55 | 131 | 1.0 | 6.0 | 0.02 | 0.38 | 0.38 | 95 | 1018.3 |
| 20260501171103 | 55 | 99 | 6.0 | 9.0 | 0.02 | 0.38 | 0.38 | 95 | 1018.4 |
| 20260501170600 | 55 | 180 | 5.0 | 11.0 | 0.00 | 0.37 | 0.37 | 95 | 1018.5 |
| 20260501170057 | 55 | 222 | 3.0 | 4.0 | 0.02 | 0.37 | 0.37 | 96 | 1018.7 |
| 20260501165555 | 55 | 164 | 0.0 | 3.0 | 0.02 | 0.37 | 0.37 | 96 | 1018.9 |
| 20260501165052 | 55 | 127 | 2.0 | 5.0 | 0.02 | 0.37 | 0.37 | 96 | 1018.8 |
| 20260501164550 | 55 | 21 | 1.0 | 4.0 | 0.02 | 0.37 | 0.37 | 96 | 1019.0 |
| 20260501164046 | 55 | 121 | 2.0 | 4.0 | 0.02 | 0.37 | 0.37 | 96 | 1018.9 |
| 20260501163543 | 55 | 76 | 2.0 | 5.0 | 0.02 | 0.36 | 0.36 | 97 | 1019.2 |
| 20260501163040 | 55 | 138 | 4.0 | 6.0 | 0.05 | 0.36 | 0.36 | 96 | 1019.1 |
| 20260501162536 | 55 | 174 | 1.0 | 5.0 | 0.05 | 0.36 | 0.36 | 96 | 1019.3 |
| 20260501162033 | 55 | 207 | 3.0 | 3.0 | 0.05 | 0.35 | 0.35 | 97 | 1019.5 |
| 20260501161530 | 55 | 220 | 0.0 | 3.0 | 0.05 | 0.35 | 0.35 | 97 | 1019.5 |
| 20260501161027 | 55 | 124 | 1.0 | 2.0 | 0.07 | 0.35 | 0.35 | 97 | 1019.5 |
| 20260501160524 | 54 | 308 | 2.0 | 4.0 | 0.07 | 0.34 | 0.34 | 97 | 1019.4 |